This demonstration page uses our WeatherBlox Daily Observations layout. Learn more.

Left ArrowRight Arrow

Hourly Observations for July 28, 2020

Temp ( °F °C ) Dew Point ( °F °C ) Humidity (%) Winds ( mph kmh ) Pressure ( in mb ) Visibility ( mi km ) Precip ( " mm )
12:53 am 00:53 Clear 71 21.7 60 15.6 68 68 SE 6 9 30.04 1017 10 16 0.00 0.00
1:53 am 01:53 Clear 71 21.7 60 15.6 68 68 SSE 5 7 30.03 1017 10 16 0.00 0.00
2:53 am 02:53 Clear 70 21.1 63 17.2 79 79 S 6 9 30.01 1016 10 16 0.00 0.00
3:53 am 03:53 Clear 68 20 64 17.8 87 87 S 6 9 30.00 1016 10 16 0.00 0.00
4:53 am 04:53 Clear 66 18.9 62 16.7 87 87 Calm 30.00 1016 10 16 0.00 0.00
5:53 am 05:53 Clear 65 18.3 63 17.2 93 93 Calm 30.00 1016 10 16 0.00 0.00
6:32 am 06:32 Mostly Sunny 65 18.3 63 17.2 93 93 Calm 30.01 1016 8 13 0.00 0.00
6:50 am 06:50 Mostly Cloudy 64 18 63 17 94 94 Calm 30.01 1016 9 14 0.00 0.00
6:53 am 06:53 Mostly Cloudy 65 18.3 62 16.7 90 90 Calm 30.02 1017 9 14 0.00 0.00
7:22 am 07:22 Cloudy with Mist and Fog 67 19.4 65 18.3 93 93 S 3 6 30.01 1016 2 2 0.00 0.00
7:30 am 07:30 Cloudy with Fog 66 19 66 19 100 100 S 3 6 30.01 1016 0 0 0.00 0.00
7:53 am 07:53 Mostly Cloudy with Fog 67 19.4 66 18.9 97 97 SSW 5 7 30.02 1017 N/A 0.00 0.00
8:53 am 08:53 Mostly Cloudy with Fog 69 20.6 67 19.4 93 93 S 5 7 30.02 1017 1 1 0.00 0.00
9:06 am 09:06 Cloudy with Mist and Fog 69 20.6 68 20 96 96 SSW 6 9 29.99 1016 2 2 0.00 0.00
9:13 am 09:13 Cloudy with Mist and Fog 70 21.1 68 20 93 93 SSW 8 13 29.99 1016 3 5 0.00 0.00
9:53 am 09:53 Mostly Cloudy 74 23.3 69 20.6 85 85 SW 5 7 30.02 1017 10 16 0.00 0.00
10:33 am 10:33 Mostly Cloudy 76 24.4 68 20 77 77 S 7 11 29.97 1015 10 16 0.00 0.00
10:46 am 10:46 Partly Cloudy 76 24.4 68 20 77 77 S 6 9 29.97 1015 10 16 0.00 0.00
10:53 am 10:53 Partly Cloudy 77 25 68 20 74 74 S 5 7 30.01 1016 10 16 0.00 0.00
11:19 am 11:19 Mostly Cloudy 76 24.4 68 20 77 77 VRB 3 6 29.96 1014 10 16 0.00 0.00
11:53 am 11:53 Mostly Cloudy 79 26.1 68 20 69 69 S 7 11 30.00 1016 10 16 0.00 0.00
12:02 pm 12:02 Mostly Sunny 79 26.1 68 20 69 69 S 3 6 29.94 1014 10 16 0.00 0.00
12:18 pm 12:18 Mostly Cloudy 79 26.1 69 20.6 72 72 S 7 11 29.93 1014 10 16 0.00 0.00
12:53 pm 12:53 Mostly Cloudy 80 26.7 68 20 67 67 S 7 11 29.99 1016 10 16 0.00 0.00
1:18 pm 13:18 Partly Cloudy 82 27.8 68 20 63 63 S 8 13 29.92 1013 10 16 0.00 0.00
1:53 pm 13:53 Partly Cloudy 82 27.8 68 20 63 63 undefined N/A 29.97 1015 10 16 0.00 0.00
2:53 pm 14:53 Mostly Sunny 84 28.9 68 20 59 59 undefined N/A 29.95 1014 10 16 0.00 0.00
3:53 pm 15:53 Sunny 85 29.4 68 20 57 57 S 8 13 29.94 1014 10 16 0.00 0.00
4:53 pm 16:53 Mostly Sunny 86 30 67 19.4 53 53 SSE 8 13 29.92 1013 10 16 0.00 0.00
5:53 pm 17:53 Sunny 85 29.4 66 18.9 53 53 S 6 9 29.90 1013 10 16 0.00 0.00
7:53 pm 19:53 Sunny 82 27.8 68 20 63 63 SSE 6 9 29.88 1012 10 16 0.00 0.00
8:53 pm 20:53 Mostly Clear 80 26.7 69 20.6 69 69 SE 6 9 29.89 1012 10 16 0.00 0.00
9:53 pm 21:53 Clear 77 25 70 21.1 79 79 SE 6 9 29.92 1013 10 16 0.00 0.00
10:53 pm 22:53 Clear 76 24.4 70 21.1 82 82 SSE 5 7 29.92 1013 10 16 0.00 0.00
11:53 pm 23:53 Clear 76 24.4 69 20.6 79 79 S 5 7 29.91 1013 10 16 0.00 0.00

Powered by AerisWeather